Location: Arrington
(35.8681°N, 86.7092°W)
Time: 01:22:23
(UTC+00:00)

Starlink Launch 2 leader - Pass Details

Date: 23 November 2019
Orbit: 279 x 281 km, 53.0° (Epoch: 13 November)

Event Time Altitude Azimuth Distance (km) Brightness Sun altitude
Exits shadow 10:46:34 27° 96° (E) 571 4.5 -20.9°
Drops below altitude 10° 10:48:10 10° 64° (ENE) 1,106 5.9 -20.6°
Sets 10:50:09 0° 55° (NE) 1,923 7.1 -20.2°
